Marcin Szymanski

Scout - Cracovia
25 Apr 2027
Sunday
Process

Personality

Adaptability (7) Ambition (4) Controversy (5) Loyalty (1) Pressure (2) Professionalism (4) Sportsmanship (8) Temperament (18)

Profile

Coaching Style Democratic
License Continental A
Determination 9
Man Management 10
Motivating 8
Discipline 5
Job Satisfaction
73%
Fatigue
0%
Role Scout
Wage 65.6K p/w
Contract 14.03.2030

Performance

Behaviour Good
Training Effectiveness
21%
Player Development
20%
Injury Prevention
20%
Tactical Implementation
40%

Recent Events

Assessed a player now
Attended a recruitment meeting now
Assessed a player 7d ago
Assessed a player 7d ago
Assessed a player 7d ago
Assessed a player 7d ago
Assessed a player 7d ago
Assessed a player 7d ago

Currently Monitoring

107
Player Club Status Ability Confidence Watched Last Observed Latest Vote
Ramadan Mohsen Zamalek Active 143 / 132 40% 2 24.04.2027 -
Solly Khunyedi Bloemfontein Celtic Active 117 / 107 40% 1 24.04.2027 -
Uriël Van Aalst Willem II Active 112 / 117 40% 1 21.04.2027 -
Jack Vale Alcione Milano Active 80 / 101 40% 1 21.04.2027 -
Evidence Makgopa Orlando Pirates Active 94 / 122 40% 4 19.04.2027 -
Emanuele Pecorino Catanzaro Active 103 / 115 40% 2 19.04.2027 -
Christian Saydee Wigan Athletic Active 122 / 107 40% 3 18.04.2027 -
Harry Leonard Peterborough United Active 122 / 120 40% 2 18.04.2027 -
André Miranda Porto Active 94 / 103 40% 2 17.04.2027 -
Molemo Seemela FC Diarra Active 89 / 74 40% 1 17.04.2027 -
Yahya Jlidi Angers SCO Active 104 / 106 40% 1 16.04.2027 -
Nhlanhla Gasa AS Police Active 100 / 80 40% 1 16.04.2027 -
Fabrizio Cavegn Bristol Rovers Active 113 / 116 40% 5 15.04.2027 -
Stephen Amankona Aduana Stars Active 115 / 88 40% 2 15.04.2027 -
Vincent Klu Adjeu Berekum Chelsea Active 53 / 74 40% 1 14.04.2027 -
Jacques Siwe Rubin Active 122 / 117 40% 2 13.04.2027 -
Kelly Saravanan Salford City Active 118 / 115 40% 2 13.04.2027 -
Danyil Alefirenko Chornomorets Active 121 / 114 40% 2 12.04.2027 -
Luke Baartman Chippa United Active 93 / 100 40% 2 12.04.2027 -
Thamsanqa Mokoena Ajax Cape Town Active 112 / 119 40% 1 12.04.2027 -
Lander Astiazarán Real Sociedad Active 119 / 105 40% 1 12.04.2027 -
Pablo Rodríguez Lech Active 123 / 134 40% 4 10.04.2027 -
Mihael Mlinarić Zaglebie Active 109 / 114 40% 2 10.04.2027 -
Kane Drummond Oldham Athletic Active 99 / 101 40% 1 09.04.2027 -
Pedro Zenit Active 122 / 129 40% 3 08.04.2027 -
João Abreu Porto Active 102 / 108 40% 1 08.04.2027 -
Dale Taylor Blackpool Active 104 / 111 40% 3 06.04.2027 -
Marcos Cuenca Zaragoza Active 109 / 112 40% 1 06.04.2027 -
Luis Palma Lech Active 124 / 114 40% 2 02.04.2027 -
Ben Ahmed Kohili Paradou Active 91 / 98 40% 1 02.04.2027 -
Felipe Fernández Vorskla Active 97 / 96 40% 2 01.04.2027 -
Luther Zwane Platinum Stars Active 115 / 116 40% 2 31.03.2027 -
Stanislav Biblyk Chaika Active 91 / 91 40% 1 25.03.2027 -
Iwan Morgan Grimsby Town Active 107 / 113 40% 5 23.03.2027 -
Ekain Orobengoa Real Sociedad Active 112 / 100 40% 2 22.03.2027 -
Lewis McCann Fleetwood Town Active 88 / 100 40% 1 19.03.2027 -
Calum Kavanagh Oldham Athletic Active 106 / 102 40% 3 18.03.2027 -
Simone Rabbi Ravenna Active 110 / 110 40% 1 15.03.2027 -
Amos Inusah Wa All Stars Active 88 / 126 40% 3 12.03.2027 -
Seidu Basit Ashanti Gold Active 81 / 90 40% 1 08.03.2027 -
Albek Gongapshev Shinnik Active 96 / 88 40% 1 07.03.2027 -
Wandile Duba Bidvest Wits Active 87 / 95 40% 3 06.03.2027 -
Paul Mukairu Pogon Active 108 / 112 40% 1 05.03.2027 -
Mykola Haiduchyk Polissia Active 123 / 111 40% 1 02.03.2027 -
Carlos Paraco Metalist Active 112 / 117 40% 1 02.03.2027 -
Pavel Meleshin Sochi Active 122 / 117 40% 1 27.02.2027 -
Peter Itodo Metalist Active 122 / 117 40% 2 25.02.2027 -
Tenton Yenne Baltika Active 99 / 104 40% 1 25.02.2027 -
Bojan Radulović Huddersfield Town Active 113 / 110 40% 2 20.02.2027 -
Gilson Benchimol Akron Active 104 / 115 40% 1 17.02.2027 -
Michalis Kosidis Zaglebie Active 100 / 118 40% 1 15.02.2027 -
Miro Dinamo Makhachkala Active 124 / 111 40% 1 11.02.2027 -
Ali Youssef Apollon Active 128 / 115 40% 1 08.02.2027 -
Tamerlan Musaev CSKA Moscow Active 134 / 116 40% 1 06.02.2027 -
Vladimir Nikolov Slavia Sofia Active 112 / 109 40% 1 31.01.2027 -
Lee Bonis Oxford United Active 110 / 103 40% 1 30.01.2027 -
Franko Kovačević Ferencvaros Active 120 / 108 40% 1 29.01.2027 -
José Martínes CSKA 1948 Active 96 / 104 40% 1 20.01.2027 -
Piotr Samiec-Talar Slask Active 103 / 105 40% 1 19.01.2027 -
Camillo Tavernelli Arezzo Active 120 / 116 40% 1 17.01.2027 -
Peter Federico Gornik Zabrze Active 133 / 120 40% 3 16.01.2027 -
Damián Puebla Orenburg Active 124 / 129 40% 1 16.01.2027 -
Mariano Bracamonte Deportivo Riestra Active 140 / 110 40% 1 30.12.2026 -
Zak Swanson Doncaster Rovers Active 104 / 119 40% 1 30.12.2026 -
Tomás O'Connor Gimnasia y Esgrima Rejected 141 / 120 40% 1 27.12.2026 Needs More Info
Armstrong Oko-Flex Levski Active 119 / 111 40% 2 24.12.2026 -
Patrik Wålemark Lech Active 122 / 128 40% 3 22.12.2026 -
Alex Luna Instituto Active 118 / 129 40% 1 22.12.2026 -
Akinkunmi Amoo Ismaily Rejected 132 / 109 40% 3 21.12.2026 Reject
Moses Cobnan Krasnodar Active 119 / 120 40% 1 20.12.2026 -
Sergio Lozano Jagiellonia Active 136 / 131 40% 2 18.12.2026 -
Aarón Molinas Defensa y Justicia Active 109 / 132 40% 1 18.12.2026 -
Ibrahim Tarek Masr El Makasa Rejected 125 / 125 40% 2 10.12.2026 Needs More Info
Angelo Gattermayer Wolfsberger AC Active 129 / 117 40% 3 10.12.2026 -
Jens Petter Hauge Bodo/Glimt Rejected 149 / 139 40% 3 08.12.2026 Monitor
Patrik Hellebrand Korona Active 120 / 126 40% 1 08.12.2026 -
Allahyar Sayyadmanesh Lech Active 143 / 120 40% 1 05.12.2026 -
Ramiro Hernandes Belgrano Active 122 / 114 40% 1 05.12.2026 -
Suleiman Camara Slovan Bratislava Active 135 / 121 40% 2 03.12.2026 -
Arsen Adamov Akhmat Grozny Active 114 / 129 40% 1 03.12.2026 -
Emi Rodriguez Leon Active 120 / 123 40% 1 01.12.2026 -
Alejo Dramisino Honved Active 116 / 112 40% 2 26.11.2026 -
Thalente Mbatha Orlando Pirates Active 125 / 126 40% 1 24.11.2026 -
Sota Kitano Red Bull Salzburg Active 118 / 115 40% 1 21.11.2026 -
Anderson Arroyo Rubin Active 122 / 126 40% 1 21.11.2026 -
Tamar Svetlin Korona Active 107 / 121 40% 2 13.11.2026 -
Juan Bezerra Zamalek Active 102 / 132 40% 1 13.11.2026 -
Marko Brest Olimpija Ljubljana Active 119 / 112 40% 1 12.11.2026 -
Kein Sato FC Tokyo Active 124 / 123 40% 1 07.11.2026 -
Emil Ceïde Rosenborg Active 139 / 129 40% 1 05.11.2026 -
Andrei Cordea CFR Cluj Active 110 / 117 40% 1 04.11.2026 -
Conrad Wallem Valerenga Active 125 / 126 40% 1 02.11.2026 -
Nazar Voloshyn Dynamo Kyiv Active 140 / 128 40% 1 01.11.2026 -
Roberto Massimo Gornik Zabrze Active 107 / 122 40% 1 01.11.2026 -
Yorbe Vertessen Red Bull Salzburg Active 138 / 132 40% 1 29.10.2026 -
Maurice Malone Minnesota United FC Active 127 / 112 40% 1 24.10.2026 -
Julio Alonso Huesca Active 111 / 126 40% 1 22.10.2026 -
Relebohile Mofokeng Orlando Pirates Active 133 / 109 40% 2 20.10.2026 -
Oswin Appollis Orlando Pirates Active 100 / 108 40% 1 20.10.2026 -
Valentín Depietri Talleres Active 138 / 124 40% 1 17.10.2026 -
Antonio Galeano Remo Stars Active 120 / 134 40% 1 15.10.2026 -
Daniel Karlsbakk Sarpsborg 08 Active 134 / 115 40% 1 14.10.2026 -
Oleh Ocheretko Shakhtar Active 123 / 133 40% 1 14.10.2026 -
Agustín Ojeda New York City Active 106 / 128 40% 1 08.10.2026 -
Sean Zawadzki Columbus Crew Active 129 / 110 40% 1 08.10.2026 -
Griffin Dorsey Orlando City Active 123 / 128 40% 1 06.10.2026 -
Marcin Biernat Podbeskidzie Active 94 / 88 44% 1 10.08.2026 -